GW5139 Weather Reports


time (UTC)temp
C
wind
direction
speed
KPH
gust
KPH
rain 1hr
cm
rain 24hr
cm
rain mn
cm
humidity
%
barometer
mb
20260504110549 8 147 0.0 0.0 0.00 0.00 0.00 78 1014.7
20260504100510 9 101 0.0 0.0 0.00 0.00 0.00 71 1014.8
20260504081903 10 235 0.0 1.6 0.00 0.00 0.00 60 1015.5
20260504081400 10 223 0.0 3.2 0.00 0.00 0.00 59 1015.5
20260504080856 10 241 1.6 3.2 0.00 0.00 0.00 58 1015.6
20260504080353 10 225 0.0 1.6 0.00 0.00 0.00 58 1015.5
20260504070320 8 142 0.0 0.0 0.00 0.00 0.00 72 1015.7
20260504060241 7 111 0.0 0.0 0.00 0.00 0.00 79 1016.0
20260504050709 7 111 0.0 0.0 0.00 0.00 0.00 83 1016.2
20260504050206 7 111 0.0 0.0 0.00 0.00 0.00 81 1016.3
20260504045704 7 111 0.0 0.0 0.00 0.00 0.00 80 1016.0
20260504045203 8 111 0.0 0.0 0.00 0.00 0.00 75 1016.0
20260504044702 8 111 0.0 0.0 0.00 0.00 0.00 72 1016.3
20260504044158 8 112 0.0 0.0 0.00 0.00 0.00 67 1016.3
20260504043655 8 112 0.0 0.0 0.00 0.00 0.00 62 1016.2
20260504043152 8 111 0.0 0.0 0.00 0.00 0.00 59 1016.2
20260504042650 8 110 0.0 0.0 0.00 0.00 0.00 71 1016.2
20260504042146 8 110 0.0 0.0 0.00 0.00 0.00 72 1016.3
20260504041642 8 150 0.0 0.0 0.00 0.00 0.00 66 1016.4
20260504041138 8 105 0.0 0.0 0.00 0.00 0.00 69 1016.5
20260504040635 7 106 0.0 0.0 0.00 0.00 0.00 69 1016.4
20260504040132 7 105 0.0 0.0 0.00 0.00 0.00 76 1016.2
20260504035629 7 105 0.0 0.0 0.00 0.00 0.00 75 1016.4
20260504035125 7 105 0.0 0.0 0.00 0.00 0.00 72 1016.3
20260504034624 7 106 0.0 0.0 0.00 0.00 0.00 69 1016.5
20260504034120 7 106 0.0 0.0 0.00 0.00 0.00 68 1016.3
20260504033618 7 106 0.0 0.0 0.00 0.00 0.00 64 1016.4
20260504033115 6 105 0.0 0.0 0.00 0.00 0.00 72 1016.4
20260504032612 6 105 0.0 0.0 0.00 0.00 0.00 69 1016.4
20260504032109 6 106 0.0 0.0 0.00 0.00 0.00 74 1016.5
20260504031606 6 106 0.0 0.0 0.00 0.00 0.00 71 1016.6
20260504031102 6 106 0.0 0.0 0.00 0.00 0.00 68 1016.4
20260504030559 6 106 0.0 0.0 0.00 0.00 0.00 67 1016.5
20260504030055 6 106 0.0 0.0 0.00 0.00 0.00 70 1016.3
20260504025553 6 106 0.0 0.0 0.00 0.00 0.00 71 1016.6
20260504025049 6 106 0.0 0.0 0.00 0.00 0.00 68 1016.7
20260504024547 7 106 0.0 0.0 0.00 0.00 0.00 65 1016.6
20260504024043 7 106 0.0 0.0 0.00 0.00 0.00 64 1016.8
20260504023540 6 106 0.0 0.0 0.00 0.00 0.00 65 1016.9
20260504023036 6 105 0.0 0.0 0.00 0.00 0.00 77 1016.5
20260504022531 6 105 0.0 0.0 0.00 0.00 0.00 74 1016.7
20260504022028 7 106 0.0 0.0 0.00 0.00 0.00 69 1016.6
20260504021526 7 106 0.0 0.0 0.00 0.00 0.00 68 1016.7
20260504021023 6 105 0.0 0.0 0.00 0.00 0.00 71 1016.8
20260504020520 7 106 0.0 0.0 0.00 0.00 0.00 72 1016.5
20260504020016 7 106 0.0 0.0 0.00 0.00 0.00 69 1016.7
20260504015513 7 106 0.0 0.0 0.00 0.00 0.00 66 1016.5
20260504015008 7 106 0.0 0.0 0.00 0.00 0.00 65 1016.5
20260504014504 8 106 0.0 0.0 0.00 0.00 0.00 61 1016.6
20260504014002 8 106 0.0 0.0 0.00 0.00 0.00 57 1016.7
20260504013500 8 105 0.0 0.0 0.00 0.00 0.00 64 1016.7
20260504012955 9 106 0.0 0.0 0.00 0.00 0.00 61 1016.6
20260504012454 9 106 0.0 0.0 0.00 0.00 0.00 52 1016.5
20260504011952 9 105 0.0 0.0 0.00 0.00 0.00 56 1016.7
20260504011447 9 109 0.0 0.0 0.00 0.00 0.00 55 1016.7
20260504010944 10 110 0.0 0.0 0.00 0.00 0.00 52 1016.6
20260504010440 10 115 1.6 1.6 0.00 0.00 0.00 53 1016.7
20260504005936 10 115 1.6 1.6 0.00 0.00 0.00 53 1016.7
20260504005433 10 127 0.0 0.0 0.00 0.00 0.00 52 1016.6
20260504004930 10 130 0.0 0.0 0.00 0.00 0.00 48 1016.5
20260504004428 11 130 0.0 0.0 0.00 0.00 0.00 46 1016.3
20260504003925 11 130 0.0 0.0 0.00 0.00 0.00 45 1016.3
20260504003421 11 130 0.0 0.0 0.00 0.00 0.00 44 1016.3
20260504002918 11 177 0.0 0.0 0.00 0.00 0.00 43 1016.0
20260504002415 11 203 0.0 0.0 0.00 0.00 0.00 43 1016.4
20260504001912 11 219 0.0 0.0 0.00 0.00 0.00 44 1016.4
20260504001410 11 273 1.6 1.6 0.00 0.00 0.00 43 1016.3
20260504000906 12 189 0.0 0.0 0.00 0.00 0.00 43 1016.4
20260504000403 12 235 0.0 4.8 0.00 0.00 0.00 42 1016.4
20260503235901 12 244 0.0 1.6 0.00 0.00 0.00 41 1016.4
20260503235359 12 248 0.0 3.2 0.00 0.00 0.00 44 1016.3
20260503234855 12 272 1.6 6.4 0.00 0.00 0.00 41 1016.5
20260503234353 12 241 0.0 0.0 0.00 0.00 0.00 41 1016.4
20260503233851 12 260 0.0 0.0 0.00 0.00 0.00 41 1016.4
20260503233347 13 244 0.0 3.2 0.00 0.00 0.00 41 1016.6
20260503232843 13 251 6.4 11.3 0.00 0.00 0.00 39 1016.6
20260503232341 13 253 4.8 6.4 0.00 0.00 0.00 39 1016.6
20260503231839 13 211 3.2 9.7 0.00 0.00 0.00 39 1016.9
20260503231335 13 274 4.8 9.7 0.00 0.00 0.00 40 1016.8
20260503230831 13 242 3.2 9.7 0.00 0.00 0.00 40 1016.9
20260503230329 13 278 8.0 12.9 0.00 0.00 0.00 37 1016.9
20260503225826 14 256 3.2 9.7 0.00 0.00 0.00 38 1017.0
20260503225322 14 305 4.8 6.4 0.00 0.00 0.00 39 1017.2
20260503224818 15 288 4.8 9.7 0.00 0.00 0.00 36 1017.2
20260503224315 15 278 4.8 11.3 0.00 0.00 0.00 37 1017.1
20260503223813 15 249 6.4 12.9 0.00 0.00 0.00 34 1017.2
20260503223311 15 282 11.3 24.1 0.00 0.00 0.00 35 1017.3
20260503222806 15 300 4.8 9.7 0.00 0.00 0.00 36 1017.1
20260503222305 15 216 1.6 9.7 0.00 0.00 0.00 37 1017.3
20260503221802 15 10 3.2 11.3 0.00 0.00 0.00 34 1017.1
20260503221300 15 227 3.2 9.7 0.00 0.00 0.00 34 1017.1
20260503220756 15 167 1.6 4.8 0.00 0.00 0.00 40 1017.1
20260503220254 15 267 3.2 12.9 0.00 0.00 0.00 35 1017.0
20260503215750 15 231 8.0 9.7 0.00 0.00 0.00 35 1017.1
20260503215247 16 243 3.2 4.8 0.00 0.00 0.00 38 1016.8
20260503214745 15 246 4.8 12.9 0.00 0.00 0.00 37 1016.6
20260503214242 15 228 6.4 11.3 0.00 0.00 0.00 35 1016.9
20260503213740 15 257 6.4 16.1 0.00 0.00 0.00 36 1016.7
20260503213237 15 268 4.8 16.1 0.00 0.00 0.00 36 1016.4
20260503212734 15 293 6.4 14.5 0.00 0.00 0.00 36 1016.6
20260503212232 15 286 8.0 9.7 0.00 0.00 0.00 33 1016.7
20260503211729 15 286 8.0 9.7 0.00 0.00 0.00 36 1016.6
20260503211225 15 236 6.4 9.7 0.00 0.00 0.00 37 1016.7
20260503210721 16 288 3.2 6.4 0.00 0.00 0.00 33 1016.6
20260503210218 15 267 4.8 6.4 0.00 0.00 0.00 34 1016.5
20260503205713 15 196 3.2 6.4 0.00 0.00 0.00 35 1016.9
20260503205210 15 266 12.9 16.1 0.00 0.00 0.00 33 1016.8
20260503204706 15 277 9.7 16.1 0.00 0.00 0.00 36 1016.9
20260503204204 15 289 6.4 14.5 0.00 0.00 0.00 33 1016.8
20260503203701 15 280 8.0 11.3 0.00 0.00 0.00 36 1016.8
20260503203159 15 304 8.0 22.5 0.00 0.00 0.00 38 1017.0
20260503202655 15 249 3.2 9.7 0.00 0.00 0.00 38 1017.0
20260503202154 15 216 6.4 6.4 0.00 0.00 0.00 37 1017.0
20260503201651 14 244 1.6 6.4 0.00 0.00 0.00 42 1017.0
20260503201149 15 266 4.8 11.3 0.00 0.00 0.00 38 1017.2
20260503200644 14 266 6.4 16.1 0.00 0.00 0.00 42 1017.2
20260503200141 16 289 3.2 6.4 0.00 0.00 0.00 35 1017.4
20260503195638 16 18 3.2 9.7 0.00 0.00 0.00 39 1017.4
20260503195135 15 284 3.2 9.7 0.00 0.00 0.00 45 1017.7
20260503194632 15 280 9.7 16.1 0.00 0.00 0.00 39 1017.6
20260503194127 15 289 8.0 12.9 0.00 0.00 0.00 36 1017.8
20260503193625 14 279 4.8 9.7 0.00 0.00 0.00 38 1017.9
20260503193120 14 236 3.2 6.4 0.00 0.00 0.00 37 1018.0
20260503192616 14 106 3.2 11.3 0.00 0.00 0.00 37 1018.0
20260503192112 15 260 9.7 17.7 0.00 0.00 0.00 38 1018.2
20260503191609 14 296 8.0 11.3 0.00 0.00 0.00 34 1017.9
20260503191106 15 277 12.9 17.7 0.00 0.00 0.00 36 1018.2
20260503190603 15 242 6.4 11.3 0.00 0.00 0.00 35 1018.1
20260503190100 15 282 11.3 17.7 0.00 0.00 0.00 36 1018.4
20260503185556 15 290 12.9 22.5 0.00 0.00 0.00 38 1018.3
20260503185056 15 239 0.0 4.8 0.00 0.00 0.00 38 1018.1
20260503184552 13 257 9.7 12.9 0.00 0.00 0.00 36 1018.4
20260503184049 13 292 4.8 11.3 0.00 0.00 0.00 45 1018.4
20260503183545 12 259 4.8 11.3 0.00 0.00 0.00 40 1018.4
20260503183043 13 273 9.7 17.7 0.00 0.00 0.00 39 1018.5
20260503182541 14 279 0.0 16.1 0.00 0.00 0.00 48 1018.6
20260503182039 13 273 12.9 17.7 0.00 0.00 0.00 42 1018.3
20260503181535 13 224 3.2 12.9 0.00 0.00 0.00 38 1018.7
20260503181031 13 307 6.4 11.3 0.00 0.00 0.00 37 1018.8
20260503180529 13 236 9.7 16.1 0.00 0.00 0.00 36 1018.7
20260503180026 13 133 0.0 6.4 0.00 0.00 0.00 40 1018.7
20260503175524 13 281 4.8 11.3 0.00 0.00 0.00 42 1019.0
20260503175020 13 251 6.4 6.4 0.00 0.00 0.00 38 1019.1
20260503174518 13 296 8.0 14.5 0.00 0.00 0.00 40 1019.0
20260503174014 13 281 6.4 6.4 0.00 0.00 0.00 41 1019.1
20260503173509 12 279 11.3 14.5 0.00 0.00 0.00 42 1019.1
20260503173006 12 302 8.0 12.9 0.00 0.00 0.00 43 1019.2
20260503172504 12 270 4.8 14.5 0.00 0.00 0.00 48 1019.2
20260503172001 11 227 1.6 4.8 0.00 0.00 0.00 43 1019.4
20260503171456 11 291 9.7 20.9 0.00 0.00 0.00 43 1019.3
20260503170954 12 178 6.4 12.9 0.00 0.00 0.00 42 1019.5
20260503170450 11 213 6.4 12.9 0.00 0.00 0.00 41 1019.7
20260503150843 9 287 14.5 20.9 0.00 0.00 0.00 42 1020.4
20260503150338 9 284 4.8 16.1 0.00 0.00 0.00 47 1020.7
20260503140303 8 236 8.0 16.1 0.00 0.00 0.00 59 1020.6
20260503131232 6 279 3.2 4.8 0.00 0.00 0.00 71 1020.5
20260503130730 6 300 3.2 4.8 0.00 0.00 0.00 72 1020.6
20260503130227 6 252 6.4 6.4 0.00 0.00 0.00 73 1020.6
20260503120153 3 258 0.0 4.8 0.00 0.00 0.00 87 1020.2